Regional Weather Roundup
Issued by NWS Sioux Falls, SD

Home | Current Version | Previous Version | Text Only | Print | Product List | Glossary On
Versions: 1 2 3 4 5 6 7 8 9 10 11 12 13 14 15 16 17 18 19 20 21 22 23 24 25 26 27 28 29 30 31 32 33 34 35 36 37 38 39 40 41 42 43 44 45 46 47 48 49 50
000
ASUS43 KFSD 280102
RWRFSD

WEATHER ROUNDUP FOR SE SOUTH DAKOTA/SW MINNESOTA/NW IOWA
NATIONAL WEATHER SERVICE SIOUX FALLS SD
800 PM CDT WED JUL 27 2016

NOTE: "FAIR" INDICATES FEW OR NO CLOUDS BELOW 12,000 FEET WITH NO
SIGNIFICANT WEATHER AND OR OBSTRUCTIONS TO VISIBILITY.


SDZ038>040-050-052>070-280200-
SOUTHEAST SOUTH DAKOTA

CITY           SKY/WX    TMP DP  RH WIND       PRES   REMARKS
BROOKINGS      CLEAR     74  63  68 N9        30.02R
CHAMBERLAIN    PTSUNNY   80  65  59 N5        30.07R
HURON          CLOUDY    78  63  59 N8        30.03R
MADISON        FAIR      72  66  83 NE8       30.02S
MITCHELL       MOCLDY    79  64  60 NE7       30.02R
SIOUX FALLS    MOCLDY    76  64  66 N7        29.99R
WINNER         TSTM      67  60  78 W18G35    30.09R
YANKTON        CLOUDY    81  66  61 N10       29.97R
$$

MNZ071-072-080-081-089-090-097-098-280200-
SOUTHWEST MINNESOTA

CITY           SKY/WX    TMP DP  RH WIND       PRES   REMARKS
FAIRMONT       PTCLDY    75  64  69 N9        29.95R
JACKSON        PTCLDY    75  63  64 NW6       29.99R
LUVERNE        CLEAR     77  61  57 N7        30.00R
MARSHALL       CLEAR     75  66  73 N7        30.00R
MONTEVIDEO     MOCLDY    75  64  69 NE3       30.02R
REDWOOD FALLS  CLEAR     76  64  66 N5        29.97R
TRACY          CLEAR     75  65  70 N8        30.00S
WINDOM         MOCLDY    75  64  69 N13       29.99R
WORTHINGTON    CLEAR     76  65  68 N10       30.00R
$$

IAZ001>003-012>014-020>022-031-032-NEZ013-014-SDZ071-280200-
NORTHWEST IOWA

CITY           SKY/WX    TMP DP  RH WIND       PRES   REMARKS
CHEROKEE       CLEAR     80  70  72 N9G17     29.95R
DENISON        CLEAR     79  70  73 CALM      29.93S
ESTHERVILLE    CLEAR     76  66  71 N9        29.96R
LE MARS        CLEAR     81  70  69 N7        29.97R
SHELDON        CLEAR     77  68  73 N8        29.97S
SIOUX CITY     CLEAR     81  68  64 NW5       29.94R
SPENCER        CLEAR     79  65  62 N10       29.97R
STORM LAKE     PTCLDY    79  72  78 N3        29.96R
$$

ABBREVIATIONS USED IN REMARKS
   TC - TEMPERATURE IN CELSIUS
  WCI - WIND CHILL INDEX
   HX - HEAT INDEX
  VSB - VISIBILITY




USA.gov is the U.S. government's official web portal to all federal, state and local government web resources and services.